, AK

(GMT )
Valdez Airport

Weather History for PAVD - December, 2013

Change the Weather History Date:

Friday, December 6, 2013

  Actual Average Record
Temperature  
Mean Temperature 24 °F -  
Max Temperature 28 °F 28 °F 40 °F (1984)
Min Temperature 19 °F 20 °F -3 °F (1975)
Degree Days  
Heating Degree Days 42    
Moisture  
Dew Point 19 °F    
Average Humidity 78    
Maximum Humidity 93    
Minimum Humidity 68    
Precipitation  
Precipitation 0.00 in - - ()
Sea Level Pressure  
Sea Level Pressure 30.59 in    
Wind  
Wind Speed 1 mph (East)    
Max Wind Speed 6 mph    
Max Gust Speed -    
Visibility 10 miles    
Events      
Averages and records for this station are not official NWS values.
T = Trace of Precipitation, MM = Missing Value Source: NWS Daily Summary

Daily Weather History Graph

Daily Weather History Graph

Search for Another Location

Airport or City:

Astronomy

Dec. 06, 2013 Rise Set
Actual Time 9:40 AM AKST 3:31 PM AKST
Civil Twilight 8:41 AM AKST 4:30 PM AKST
Nautical Twilight 7:42 AM AKST 5:29 PM AKST
Astronomical Twilight 6:50 AM AKST 6:22 PM AKST
Moon 12:02 PM AKST (12/6) 9:11 PM AKST (12/6)
Length of Visible Light 7h 49m
Length of Day
5h 50m
Waxing Crescent, 20% of the Moon is Illuminated
Dec 6
Waxing Crescent
Dec 9
First Quarter
Dec 17
Full
Dec 25
Last Quarter
Jan 1
New

Hourly Weather History & Observations

Time (AKST) Temp. Windchill Dew Point Humidity Pressure Visibility Wind Dir Wind Speed Gust Speed Precip Events Conditions
12:16 AM 23.0 °F 18.4 °F 15.8 °F 74% 30.60 in 10.0 mi East 3.5 mph - N/A   Scattered Clouds
12:36 AM 24.8 °F - 17.6 °F 74% 30.60 in 10.0 mi Calm Calm - N/A   Clear
12:56 AM 24.8 °F - 19.4 °F 80% 30.61 in 10.0 mi Calm Calm - N/A   Clear
1:16 AM 24.8 °F 20.5 °F 15.8 °F 69% 30.61 in 10.0 mi East 3.5 mph - N/A   Mostly Cloudy
1:36 AM 26.6 °F - 21.2 °F 80% 30.61 in 10.0 mi Calm Calm - N/A   Overcast
1:56 AM 24.8 °F - 19.4 °F 80% 30.62 in 10.0 mi Calm Calm - N/A   Overcast
2:16 AM 24.8 °F - 19.4 °F 80% 30.62 in 10.0 mi Calm Calm - N/A   Overcast
2:36 AM 26.6 °F 22.6 °F 17.6 °F 69% 30.62 in 10.0 mi East 3.5 mph - N/A   Overcast
2:56 AM 26.6 °F - 19.4 °F 74% 30.61 in 10.0 mi Calm Calm - N/A   Overcast
3:16 AM 28.4 °F - 21.2 °F 74% 30.61 in 10.0 mi Calm Calm - N/A   Mostly Cloudy
3:36 AM 26.6 °F - 21.2 °F 80% 30.62 in 10.0 mi Calm Calm - N/A   Overcast
3:56 AM 26.6 °F - 19.4 °F 74% 30.61 in 10.0 mi Calm Calm - N/A   Overcast
4:16 AM 26.6 °F - 19.4 °F 74% 30.61 in 10.0 mi Calm Calm - N/A   Overcast
4:36 AM 26.6 °F - 21.2 °F 80% 30.61 in 10.0 mi Calm Calm - N/A   Overcast
4:56 AM 26.6 °F 22.6 °F 21.2 °F 80% 30.61 in 10.0 mi East 3.5 mph - N/A   Overcast
5:16 AM 26.6 °F - 21.2 °F 80% 30.61 in 10.0 mi Calm Calm - N/A   Overcast
5:36 AM 26.6 °F - 19.4 °F 74% 30.60 in 10.0 mi Calm Calm - N/A   Overcast
5:56 AM 26.6 °F - 21.2 °F 80% 30.60 in 10.0 mi Calm Calm - N/A   Overcast
6:16 AM 26.6 °F - 21.2 °F 80% 30.61 in 10.0 mi Calm Calm - N/A   Overcast
6:36 AM 26.6 °F - 21.2 °F 80% 30.60 in 10.0 mi Calm Calm - N/A   Mostly Cloudy
6:56 AM 26.6 °F - 19.4 °F 74% 30.61 in 10.0 mi Calm Calm - N/A   Mostly Cloudy
7:16 AM 24.8 °F 20.5 °F 17.6 °F 74% 30.61 in 10.0 mi East 3.5 mph - N/A   Mostly Cloudy
7:36 AM 26.6 °F - 21.2 °F 80% 30.60 in 10.0 mi Calm Calm - N/A   Mostly Cloudy
7:56 AM 23.0 °F - 21.2 °F 93% 30.60 in 10.0 mi Calm Calm - N/A   Scattered Clouds
8:16 AM 24.8 °F 20.5 °F 19.4 °F 80% 30.60 in 10.0 mi ENE 3.5 mph - N/A   Scattered Clouds
8:36 AM 23.0 °F 18.4 °F 17.6 °F 80% 30.60 in 10.0 mi East 3.5 mph - N/A   Scattered Clouds
8:56 AM 24.8 °F - 19.4 °F 80% 30.61 in 10.0 mi Calm Calm - N/A   Mostly Cloudy
9:16 AM 24.8 °F 20.5 °F 17.6 °F 74% 30.60 in 10.0 mi East 3.5 mph - N/A   Mostly Cloudy
9:36 AM 23.0 °F - 19.4 °F 86% 30.60 in 10.0 mi Calm Calm - N/A   Mostly Cloudy
9:56 AM 24.8 °F - 19.4 °F 80% 30.61 in 10.0 mi Calm Calm - N/A   Mostly Cloudy
10:16 AM 24.8 °F - 19.4 °F 80% 30.60 in 10.0 mi Calm Calm - N/A   Mostly Cloudy
10:36 AM 23.0 °F - 19.4 °F 86% 30.61 in 10.0 mi Calm Calm - N/A   Mostly Cloudy
10:56 AM 24.8 °F - 17.6 °F 74% 30.61 in 10.0 mi Calm Calm - N/A   Mostly Cloudy
11:16 AM 24.8 °F - 21.2 °F 86% 30.61 in 10.0 mi Calm Calm - N/A   Mostly Cloudy
11:36 AM 24.8 °F 20.5 °F 21.2 °F 86% 30.61 in 10.0 mi ENE 3.5 mph - N/A   Mostly Cloudy
11:56 AM 24.8 °F - 19.4 °F 80% 30.61 in 10.0 mi Calm Calm - N/A   Mostly Cloudy
12:16 PM 24.8 °F - 19.4 °F 80% 30.60 in 10.0 mi Calm Calm - N/A   Mostly Cloudy
12:36 PM 24.8 °F - 17.6 °F 74% 30.60 in 10.0 mi Calm Calm - N/A   Mostly Cloudy
12:56 PM 26.6 °F - 21.2 °F 80% 30.59 in 10.0 mi Calm Calm - N/A   Mostly Cloudy
1:16 PM 26.6 °F - 21.2 °F 80% 30.59 in 10.0 mi Calm Calm - N/A   Mostly Cloudy
1:36 PM 28.4 °F - 21.2 °F 74% 30.59 in 10.0 mi Calm Calm - N/A   Mostly Cloudy
1:56 PM 28.4 °F - 21.2 °F 74% 30.59 in 10.0 mi Calm Calm - N/A   Mostly Cloudy
2:16 PM 28.4 °F - 19.4 °F 69% 30.59 in 10.0 mi Calm Calm - N/A   Mostly Cloudy
2:36 PM 28.4 °F - 21.2 °F 74% 30.58 in 10.0 mi Calm Calm - N/A   Mostly Cloudy
2:56 PM 28.4 °F - 21.2 °F 74% 30.57 in 10.0 mi Calm Calm - N/A   Mostly Cloudy
3:16 PM 28.4 °F - 19.4 °F 69% 30.57 in 10.0 mi Calm Calm - N/A   Mostly Cloudy
3:36 PM 28.4 °F - 21.2 °F 74% 30.57 in 10.0 mi Calm Calm - N/A   Mostly Cloudy
3:56 PM 28.4 °F - 19.4 °F 69% 30.56 in 10.0 mi Calm Calm - N/A   Mostly Cloudy
4:16 PM 26.6 °F - 21.2 °F 80% 30.56 in 10.0 mi Calm Calm - N/A   Mostly Cloudy
4:36 PM 26.6 °F 20.0 °F 19.4 °F 74% 30.56 in 10.0 mi East 5.8 mph - N/A   Mostly Cloudy
4:56 PM 26.6 °F 22.6 °F 19.4 °F 74% 30.56 in 10.0 mi East 3.5 mph - N/A   Mostly Cloudy
5:16 PM 28.4 °F - 21.2 °F 74% 30.56 in 10.0 mi Calm Calm - N/A   Mostly Cloudy
5:36 PM 26.6 °F - 17.6 °F 69% 30.56 in 10.0 mi Calm Calm - N/A   Mostly Cloudy
5:56 PM 26.6 °F - 19.4 °F 74% 30.57 in 10.0 mi Calm Calm - N/A   Partly Cloudy
6:16 PM 24.8 °F - 21.2 °F 86% 30.57 in 10.0 mi Calm Calm - N/A   Partly Cloudy
6:36 PM 24.8 °F - 21.2 °F 86% 30.57 in 10.0 mi Calm Calm - N/A   Partly Cloudy
6:56 PM 24.8 °F - 15.8 °F 69% 30.56 in 10.0 mi Calm Calm - N/A   Clear
7:16 PM 23.0 °F - 17.6 °F 80% 30.56 in 10.0 mi Calm Calm - N/A   Clear
7:36 PM 24.8 °F - 19.4 °F 80% 30.56 in 10.0 mi Calm Calm - N/A   Clear
7:56 PM 24.8 °F - 17.6 °F 74% 30.56 in 10.0 mi Calm Calm - N/A   Clear
8:16 PM 24.8 °F - 21.2 °F 86% 30.56 in 10.0 mi Calm Calm - N/A   Clear
8:36 PM 23.0 °F - 17.6 °F 80% 30.56 in 10.0 mi Calm Calm - N/A   Clear
8:56 PM 23.0 °F - 15.8 °F 74% 30.56 in 10.0 mi Calm Calm - N/A   Clear
9:16 PM 21.2 °F 14.9 °F 15.8 °F 80% 30.56 in 10.0 mi ENE 4.6 mph - N/A   Clear
9:36 PM 21.2 °F 14.9 °F 15.8 °F 80% 30.56 in 10.0 mi East 4.6 mph - N/A   Clear
9:56 PM 19.4 °F 12.8 °F 10.4 °F 68% 30.56 in 10.0 mi ENE 4.6 mph - N/A   Clear
10:16 PM 23.0 °F 18.4 °F 17.6 °F 80% 30.55 in 10.0 mi East 3.5 mph - N/A   Clear
10:36 PM 24.8 °F 19.1 °F 21.2 °F 86% 30.55 in 10.0 mi ENE 4.6 mph - N/A   Clear
10:56 PM 24.8 °F - 15.8 °F 69% 30.54 in 10.0 mi Calm Calm - N/A   Clear
11:16 PM 23.0 °F - 17.6 °F 80% 30.53 in 10.0 mi Calm Calm - N/A   Clear
11:36 PM 24.8 °F - 19.4 °F 80% 30.52 in 10.0 mi Calm Calm - N/A   Clear
11:56 PM 21.2 °F - 15.8 °F 80% 30.52 in 10.0 mi Calm Calm - N/A   Clear